Date,TemperatureHighF,TemperatureAvgF,TemperatureLowF,DewpointHighF,DewpointAvgF,DewpointLowF,HumidityHigh,HumidityAvg,HumidityLow,PressureMaxIn,PressureMinIn,WindSpeedMaxMPH,WindSpeedAvgMPH,GustSpeedMaxMPH,PrecipitationSumIn
2013-1-4,28,21,16,20,16,13,88,82,73,30.23,30.18,7,3,13,0.00
2013-1-5,26,20,13,20,16,11,91,84,76,30.18,29.95,16,6,20,0.00
2013-1-6,24,17,11,17,12,6,90,82,72,30.34,30.14,10,4,15,0.00
2013-1-7,36,28,20,29,24,18,93,82,75,30.17,30.00,20,6,25,0.00
2013-1-8,37,26,13,32,23,11,96,88,79,30.07,29.83,13,4,22,0.00
2013-1-9,41,32,27,31,28,24,91,83,63,30.42,30.08,12,4,18,0.00
2013-1-10,38,33,28,34,29,24,97,85,68,30.37,29.73,11,4,14,0.16
2013-1-11,42,38,33,42,37,31,98,97,93,29.73,29.43,16,5,23,0.00
2013-1-12,32,17,10,29,10,3,91,74,63,30.14,29.55,18,8,30,0.00
2013-1-13,15,9,4,7,2,-1,81,75,67,30.38,30.13,14,5,22,0.00
2013-1-14,26,16,7,15,10,4,85,77,61,30.51,30.37,8,3,10,0.00
2013-1-15,32,22,14,20,14,10,83,72,54,30.40,29.99,17,6,22,0.00
2013-1-16,44,30,16,36,25,11,88,81,72,30.26,29.83,19,7,22,0.00
2013-1-17,32,21,9,24,13,2,86,71,46,30.47,30.28,11,3,12,0.00
2013-1-18,48,36,26,34,30,22,91,78,59,30.32,29.84,24,6,24,0.00
2013-1-19,46,33,9,33,25,1,87,74,58,30.30,29.78,19,8,33,0.00
2013-1-20,12,8,4,5,1,-4,83,76,69,30.49,30.31,14,5,21,0.00
2013-1-21,7,-1,-8,-3,-8,-15,79,71,62,30.51,30.41,18,6,25,0.00
2013-1-22,14,6,-2,7,-2,-8,79,70,56,30.52,30.32,8,2,12,0.00
2013-1-23,20,12,-2,13,5,-10,81,71,57,30.65,30.23,17,6,26,0.00
2013-1-24,17,7,-2,4,-5,-10,74,59,44,30.71,30.28,11,4,18,0.00
2013-1-25,29,17,6,20,7,-1,79,66,51,30.37,30.12,21,7,27,0.00
2013-1-26,30,17,3,15,6,-2,81,64,45,30.39,30.16,15,4,20,0.00
2013-1-27,33,31,27,32,27,15,96,85,59,30.15,29.80,10,2,16,0.13
2013-1-28,35,32,29,34,31,29,98,97,96,29.93,29.61,6,1,9,0.01
2013-1-29,34,31,26,34,30,24,98,95,91,29.74,29.56,16,6,24,0.01
2013-1-30,26,18,9,24,14,4,94,84,76,29.89,29.61,22,11,29,0.00
2013-1-31,9,1,-5,5,-5,-12,84,73,64,30.45,29.90,22,9,27,0.00
2013-2-1,19,5,-7,15,-1,-13,84,75,63,30.46,30.09,12,4,24,0.00
2013-2-2,30,16,6,27,12,3,93,83,67,30.26,30.02,19,5,27,0.00
2013-2-3,28,20,11,23,15,7,89,82,70,30.20,29.85,17,4,25,0.00
2013-2-4,24,19,12,20,14,9,88,80,67,30.10,29.86,14,5,17,0.00
2013-2-5,38,27,17,31,23,14,91,85,72,30.15,29.80,18,6,24,0.00
2013-2-6,41,30,15,34,25,13,90,84,77,30.14,29.89,16,4,24,0.00
2013-2-7,36,27,22,34,25,20,96,93,89,30.27,29.95,12,6,20,0.00
2013-2-8,28,25,21,24,22,19,91,87,81,30.41,30.26,11,4,19,0.00
2013-2-9,35,29,25,31,27,23,92,90,85,30.27,29.87,16,7,25,0.00
2013-2-10,39,34,28,38,33,26,97,95,90,29.87,29.25,17,6,25,0.48
2013-2-11,28,25,20,27,20,16,94,83,75,30.15,29.51,24,11,31,0.00
2013-2-12,39,29,20,30,24,16,89,80,67,30.16,29.89,14,3,18,0.00
2013-2-13,46,35,24,36,30,22,92,82,66,29.89,29.64,11,4,15,0.00
2013-2-14,37,29,16,32,25,10,94,84,73,30.24,29.67,22,7,24,0.01
2013-2-15,22,16,10,14,10,6,84,77,67,30.39,30.25,13,5,17,0.00
2013-2-16,32,19,9,22,14,6,92,82,58,30.36,30.13,7,2,9,0.00
2013-2-17,39,29,18,30,23,15,89,80,70,30.12,29.62,20,6,23,0.00
2013-2-18,36,26,7,32,20,1,89,80,71,29.96,29.57,30,9,30,0.00
2013-2-19,14,5,-1,3,-2,-7,80,71,61,30.49,29.96,25,11,32,0.00
2013-2-20,22,9,-4,11,1,-8,83,72,55,30.55,30.41,7,3,12,0.00
2013-2-21,26,18,12,17,12,8,92,77,57,30.45,30.00,15,6,25,0.00
2013-2-22,24,20,14,22,18,12,92,90,87,30.00,29.90,9,5,18,0.01
2013-2-23,26,17,8,21,14,6,91,87,79,30.00,29.93,6,2,10,0.01
2013-2-24,30,22,11,27,19,9,91,88,80,30.14,30.00,4,1,8,0.00
2013-2-25,28,27,25,26,25,23,95,92,90,30.15,30.02,7,2,10,0.00
2013-2-26,31,26,19,27,24,17,95,90,82,30.03,29.85,17,7,18,0.00
2013-2-27,31,25,21,25,22,18,90,86,77,30.07,29.87,13,8,24,0.00
2013-2-28,29,25,18,24,22,16,90,87,82,30.24,30.07,12,5,14,0.00
2013-3-1,26,24,17,22,19,13,91,82,68,30.40,30.23,10,5,18,0.00
2013-3-2,28,19,7,19,14,5,90,82,66,30.39,30.21,6,2,8,0.00
2013-3-3,33,27,23,25,22,19,93,81,70,30.21,29.94,11,4,18,0.00
2013-3-4,30,27,24,28,26,23,95,93,91,30.03,29.84,14,5,18,0.00
2013-3-5,29,26,21,27,24,18,95,90,85,30.35,29.98,17,7,23,0.01
2013-3-6,26,22,18,21,18,15,91,86,78,30.48,30.35,11,4,14,0.00
2013-3-7,30,19,8,23,16,6,92,87,78,30.41,30.30,9,3,17,0.01
2013-3-8,36,29,19,33,26,17,93,88,80,30.34,30.07,11,4,19,0.09
2013-3-9,38,36,34,38,35,33,97,96,94,30.06,29.67,15,6,21,0.69
2013-3-10,34,31,27,33,30,26,97,96,93,29.89,29.72,18,11,27,0.06
2013-3-11,27,25,23,26,22,20,96,90,82,29.95,29.81,17,8,25,0.00
2013-3-12,29,25,20,27,21,16,93,83,76,30.28,29.95,20,7,27,0.00
2013-3-13,29,21,14,20,16,11,89,82,66,30.48,30.28,9,4,15,0.01
2013-3-14,41,33,22,33,27,18,90,80,66,30.32,30.07,11,4,13,0.00
2013-3-15,40,36,32,36,33,31,96,91,86,30.06,29.76,11,4,14,0.00
2013-3-16,33,27,19,32,22,14,97,84,75,30.27,29.85,15,7,23,0.00
2013-3-17,32,25,14,29,20,9,90,80,72,30.27,29.88,12,6,16,0.00
2013-3-18,32,24,14,31,19,7,96,81,67,30.01,29.70,21,10,29,0.00
2013-3-19,30,18,10,20,10,4,78,70,58,30.34,29.99,19,7,21,0.00
2013-3-20,23,16,10,10,7,4,81,68,54,30.39,30.21,17,8,26,0.00
2013-3-21,25,17,8,16,10,4,86,73,58,30.21,30.08,9,2,13,0.00
2013-3-22,30,23,13,21,16,10,92,76,60,30.15,30.09,11,1,11,0.00
2013-3-23,33,28,22,24,21,19,91,76,59,30.20,30.11,10,4,14,0.00
2013-3-24,30,27,24,27,24,20,94,87,75,30.13,29.98,13,7,19,0.00
2013-3-25,34,29,25,27,21,-100,93,78,62,30.32,30.05,16,-13,22,0.01
2013-3-26,37,27,19,26,21,16,87,78,60,30.37,30.32,9,4,14,0.00
2013-3-27,41,33,23,30,26,21,93,78,61,30.37,30.30,9,2,11,0.00
2013-3-28,48,38,30,38,32,26,90,79,66,30.35,30.25,8,2,14,0.00
2013-3-29,56,45,34,43,37,30,88,75,56,30.28,30.07,11,4,20,0.00
2013-3-30,58,48,39,48,41,35,91,78,63,30.07,29.86,13,5,21,0.00
2013-3-31,40,35,25,36,28,17,96,76,49,30.15,29.87,20,9,28,0.00
2013-4-1,35,27,20,21,16,13,79,64,46,30.34,30.16,16,6,22,0.00
2013-4-2,40,32,22,25,22,19,87,69,52,30.38,30.32,14,3,15,0.00
2013-4-3,48,36,25,31,26,21,85,67,52,30.42,30.20,15,5,23,0.00
2013-4-4,53,43,34,36,32,27,83,64,43,30.19,30.08,13,7,19,0.00
2013-4-5,52,41,29,35,30,26,90,68,49,30.21,29.80,11,5,20,0.00
2013-4-6,58,47,37,46,40,33,90,76,62,29.80,29.52,20,6,23,0.06
2013-4-7,54,42,32,47,38,31,95,86,71,29.95,29.70,12,4,17,0.06
2013-4-8,66,54,42,54,48,41,96,82,61,29.89,29.61,15,5,25,0.00
2013-4-9,47,40,36,44,38,35,96,94,88,30.09,29.79,22,11,34,1.60
2013-4-10,36,34,33,35,32,30,95,93,88,30.02,29.79,23,8,36,0.18
2013-4-11,37,35,33,36,34,32,97,96,95,29.79,29.58,9,4,12,0.67
2013-4-12,34,32,30,32,28,27,96,87,75,29.93,29.62,13,7,22,0.00
2013-4-13,43,35,27,34,29,25,91,79,63,30.00,29.86,12,5,14,0.00
2013-4-14,58,43,36,54,40,33,95,88,74,29.86,29.36,21,7,27,0.60
2013-4-15,42,37,33,34,29,26,84,74,64,30.07,29.59,16,8,27,0.00
2013-4-16,48,39,31,33,30,28,91,72,52,30.28,30.06,15,6,17,0.00
2013-4-17,39,38,36,37,35,32,96,88,77,30.26,29.77,16,8,25,0.78
2013-4-18,36,33,31,35,32,30,96,95,94,29.82,29.59,23,10,27,0.60
2013-4-19,36,31,28,30,26,24,94,81,66,30.08,29.65,26,11,31,0.04
2013-4-20,44,35,24,29,23,17,87,64,36,30.30,30.08,10,4,13,0.01
2013-4-21,64,46,37,49,39,28,90,78,47,30.29,30.01,18,6,27,0.21
2013-4-22,45,37,31,42,36,30,97,94,90,30.16,30.00,16,8,24,0.70
2013-4-23,37,31,26,30,26,22,95,82,61,30.20,30.13,17,8,24,0.14
2013-4-24,53,38,27,39,29,24,89,72,39,30.16,29.96,22,6,30,0.00
2013-4-25,60,44,29,36,28,21,85,58,34,30.26,30.06,14,5,17,0.00
2013-4-26,74,61,48,48,39,35,73,48,24,30.12,30.01,15,6,26,0.00
2013-4-27,70,58,43,51,47,42,94,70,45,30.12,29.92,11,5,20,0.00
2013-4-28,80,64,48,51,46,43,89,58,27,29.92,29.63,26,8,27,0.00
2013-4-29,76,64,51,60,54,48,91,72,47,29.77,29.46,11,4,24,0.42
2013-4-30,71,65,54,61,51,41,84,62,37,29.90,29.42,14,6,23,0.35
2013-5-1,52,38,32,46,36,31,96,91,76,30.45,29.89,20,10,26,0.19
2013-5-2,42,36,33,34,32,29,97,84,65,30.53,30.40,9,1,12,0.89
2013-5-3,36,34,32,33,31,28,94,87,80,30.39,30.09,0,0,0,0.05
2013-5-4,43,38,33,42,36,31,97,95,93,30.15,30.02,0,0,0,0.09
2013-5-5,52,46,41,49,44,40,97,94,88,30.16,30.09,0,0,0,0.00
2013-5-6,71,56,42,54,48,41,96,76,47,30.12,30.00,0,0,0,0.01
2013-5-7,75,63,49,55,50,46,92,66,37,30.05,29.92,0,0,0,0.00
2013-5-8,73,62,55,58,52,48,96,73,43,29.95,29.89,0,0,0,0.25
2013-5-9,61,56,47,58,54,45,97,92,84,29.99,29.85,0,0,0,0.02
2013-5-10,67,54,40,48,39,32,93,61,30,30.06,29.94,0,0,0,0.00
2013-5-11,58,49,42,43,27,17,71,45,24,30.19,29.93,0,0,0,0.00
2013-5-12,61,48,35,27,21,13,63,37,18,30.24,30.10,0,0,0,0.00
2013-5-13,81,62,44,48,36,21,53,39,28,30.11,29.71,0,0,0,0.00
2013-5-14,102,81,62,58,48,33,69,37,13,29.71,29.45,0,0,0,0.00
2013-5-15,80,69,57,47,43,34,60,41,25,29.88,29.67,0,0,0,0.00
2013-5-16,87,71,53,62,48,38,92,52,18,29.88,29.73,0,0,0,0.17
2013-5-17,82,69,62,67,63,59,94,82,56,29.86,29.77,0,0,0,0.09
2013-5-18,83,72,60,64,61,58,94,70,47,29.90,29.69,0,0,0,0.00
2013-5-19,76,69,64,67,64,62,94,82,66,29.72,29.45,0,0,0,0.73
2013-5-20,74,65,60,62,58,56,95,80,56,29.55,29.44,0,0,0,0.19
2013-5-21,63,60,55,59,53,49,94,79,63,29.62,29.46,0,0,0,0.02
2013-5-22,55,53,50,54,52,49,96,95,92,29.89,29.60,0,0,0,0.21
2013-5-23,64,56,48,49,44,37,94,69,38,30.27,29.91,0,0,0,0.00
2013-5-24,72,58,45,54,44,37,80,61,39,30.33,30.12,0,0,0,0.06
2013-5-25,60,54,50,52,50,47,95,86,67,30.17,30.09,0,0,0,0.16
2013-5-26,58,52,49,55,50,48,97,94,87,30.14,29.91,0,0,0,1.96
2013-5-27,65,58,53,62,57,52,98,95,86,29.96,29.71,0,0,0,0.54
2013-5-28,73,64,58,65,61,58,98,91,76,29.72,29.63,0,0,0,0.00
2013-5-29,75,66,59,69,64,58,98,90,76,29.73,29.57,0,0,0,0.42
2013-5-30,71,66,63,65,63,61,97,88,77,29.60,29.46,0,0,0,0.17
2013-5-31,78,68,59,62,55,50,88,66,38,29.55,29.51,0,0,0,0.01
2013-6-1,68,59,54,59,53,47,94,81,70,29.91,29.52,0,0,0,0.00
2013-6-2,67,57,50,47,43,36,86,61,33,30.06,29.91,0,0,0,0.00
2013-6-3,73,62,48,49,46,43,87,59,38,30.04,29.87,0,0,0,0.00
2013-6-4,63,58,54,56,54,50,96,86,62,30.01,29.91,0,0,0,0.95
2013-6-5,68,60,54,57,53,51,96,80,54,29.99,29.90,0,0,0,0.01
2013-6-6,63,58,53,54,52,51,95,81,65,29.98,29.89,0,0,0,0.00
2013-6-7,66,58,53,53,51,48,95,79,53,30.01,29.89,0,0,0,0.00
2013-6-8,67,59,52,60,55,49,95,86,64,29.89,29.75,0,0,0,0.51
2013-6-9,71,64,59,64,61,57,96,89,76,29.75,29.64,0,0,0,0.17
2013-6-10,77,65,57,64,61,57,98,86,61,29.84,29.73,0,0,0,0.01
2013-6-11,90,77,64,69,66,62,93,70,46,29.82,29.69,0,0,0,0.00
2013-6-12,83,73,62,73,68,58,95,85,70,29.81,29.61,0,0,0,0.46
2013-6-13,80,70,59,58,55,53,82,61,41,30.03,29.91,0,0,0,0.00
2013-6-14,76,69,62,65,61,57,94,76,61,30.02,29.78,0,0,0,0.14
2013-6-15,80,71,63,68,65,61,95,83,65,29.93,29.79,0,0,0,0.46
2013-6-16,87,74,61,65,55,45,94,57,25,29.91,29.82,0,0,0,0.01
2013-6-17,86,75,64,60,54,44,76,51,23,29.92,29.84,0,0,0,0.00
2013-6-18,80,72,61,59,56,54,87,60,40,29.98,29.90,0,0,0,0.00
2013-6-19,85,75,64,64,60,57,81,61,39,29.99,29.87,0,0,0,0.00
2013-6-20,89,79,68,67,64,62,82,63,46,29.92,29.80,0,0,0,0.00
2013-6-21,89,78,64,74,69,61,92,73,59,29.88,29.71,0,0,0,0.04
2013-6-22,90,76,65,73,67,62,93,76,45,29.95,29.73,0,0,0,0.13
2013-6-23,82,75,66,70,67,63,94,76,55,29.84,29.62,0,0,0,0.45
2013-6-24,75,71,67,70,68,65,95,88,76,29.84,29.67,7,1,14,0.18
2013-6-25,88,77,67,74,70,66,95,79,52,29.76,29.63,11,4,19,0.00
2013-6-26,89,81,73,75,69,58,95,70,37,29.78,29.58,12,3,19,0.00
2013-6-27,88,78,69,68,61,53,77,57,31,29.85,29.77,15,4,21,0.00
2013-6-28,82,76,67,60,57,51,71,53,37,29.81,29.73,23,3,30,0.00
2013-6-29,75,69,64,62,58,54,90,70,49,29.89,29.72,0,0,0,0.09
2013-6-30,78,68,57,58,51,43,86,58,29,30.06,29.89,0,0,0,0.00
2013-7-1,84,72,59,59,53,48,83,55,30,30.12,30.06,0,0,0,0.00
2013-7-2,84,73,61,61,55,49,81,55,31,30.08,29.98,0,0,0,0.00
2013-7-3,85,73,59,61,55,50,88,58,32,30.01,29.89,0,0,0,0.00
2013-7-4,87,75,63,60,57,53,85,56,33,29.93,29.84,0,0,0,0.00
2013-7-5,88,77,67,64,57,-100,73,55,43,29.87,29.78,0,-22,0,0.00
2013-7-6,92,79,69,67,63,60,76,59,41,29.83,29.73,0,0,0,0.00
2013-7-7,91,82,72,71,67,65,89,63,47,29.84,29.75,0,0,0,0.02
2013-7-8,93,80,71,72,69,63,95,73,42,29.90,29.82,0,0,0,0.00
2013-7-9,92,81,74,73,70,66,93,71,48,29.87,29.76,0,0,0,0.27
2013-7-10,81,73,64,68,58,51,85,61,37,30.01,29.87,0,0,0,0.00
2013-7-11,85,74,62,58,56,52,81,58,33,30.07,29.93,0,0,0,0.00
2013-7-12,87,76,65,63,60,57,78,59,41,29.97,29.86,0,0,0,0.00
2013-7-13,80,73,68,65,61,57,77,67,58,29.99,29.88,0,0,0,0.00
2013-7-14,87,77,67,64,62,60,84,63,41,30.12,29.99,0,0,0,0.00
2013-7-15,89,78,67,70,66,62,85,68,50,30.17,30.07,0,0,0,0.00
2013-7-16,92,82,72,72,69,66,91,66,43,30.17,30.11,0,0,0,0.00
2013-7-17,93,83,72,72,69,67,89,65,43,30.21,30.07,0,0,0,0.00
2013-7-18,93,84,74,71,69,67,85,64,44,30.07,29.79,0,0,0,0.00
2013-7-19,89,82,71,71,64,57,73,57,38,29.85,29.71,0,0,0,0.00
2013-7-20,85,75,64,63,61,58,86,62,41,29.91,29.82,0,0,0,0.00
2013-7-21,86,75,68,67,64,57,83,70,39,29.86,29.72,0,0,0,0.00
2013-7-22,92,77,66,73,67,60,95,73,50,29.80,29.62,0,0,0,0.00
2013-7-23,75,68,60,60,57,54,86,69,50,29.96,29.79,0,0,0,0.00
2013-7-24,81,69,57,58,56,53,87,64,42,30.03,29.94,0,0,0,0.00
2013-7-25,86,72,63,66,62,57,96,74,46,29.97,29.84,0,0,0,1.59
2013-7-26,71,66,58,66,57,51,96,75,54,30.04,29.87,0,0,0,0.00
2013-7-27,68,59,50,51,47,43,89,66,42,30.07,29.94,0,0,0,0.00
2013-7-28,73,62,50,52,48,46,85,63,39,30.04,29.94,0,0,0,0.00
2013-7-29,77,65,52,60,52,49,89,66,41,30.08,30.02,0,0,0,0.00
2013-7-30,76,68,63,66,63,59,93,83,70,30.04,30.00,0,0,0,0.00
2013-7-31,81,71,61,66,62,57,97,75,47,30.05,29.97,0,0,0,0.00
2013-8-1,86,70,59,68,61,54,94,77,45,30.02,29.84,0,0,0,0.82
2013-8-2,75,68,63,65,62,59,93,81,59,30.00,29.83,0,0,0,0.05
2013-8-3,76,67,55,60,56,52,95,71,43,30.15,30.00,0,0,0,0.01
2013-8-4,80,69,56,61,57,53,91,67,46,30.17,29.96,0,0,0,0.00
2013-8-5,84,72,65,71,65,59,92,79,58,29.95,29.76,0,0,0,0.00
2013-8-6,87,75,64,70,67,63,96,77,53,29.80,29.69,0,0,0,0.00
2013-8-7,77,69,62,68,60,55,94,75,53,29.98,29.75,0,0,0,0.00
2013-8-8,78,67,57,63,58,52,84,73,53,30.03,29.93,0,0,0,0.00
2013-8-9,78,70,63,63,59,55,93,70,46,30.09,29.95,0,0,0,0.00
2013-8-10,80,68,58,64,59,55,91,74,50,30.15,30.03,0,0,0,0.01
2013-8-11,75,68,64,70,64,62,95,89,72,30.05,29.95,0,0,0,0.51
2013-8-12,78,69,60,64,60,55,97,75,46,30.03,29.97,0,0,0,0.01
2013-8-13,75,66,57,60,55,50,91,70,44,30.14,30.02,0,0,0,0.00
2013-8-14,76,65,53,56,52,47,90,65,37,30.18,30.08,0,0,0,0.00
2013-8-15,74,64,54,58,55,52,92,73,54,30.11,30.04,0,0,0,0.00
2013-8-16,78,66,53,59,56,52,97,72,45,30.17,30.10,0,0,0,0.00
2013-8-17,80,68,56,59,55,52,87,65,40,30.17,30.07,0,0,0,0.00
2013-8-18,81,70,58,62,57,55,90,68,43,30.11,30.00,0,0,0,0.00
2013-8-19,84,73,61,68,63,57,89,72,56,30.01,29.86,0,0,0,0.00
2013-8-20,88,79,71,74,69,65,83,73,60,29.88,29.80,0,0,0,0.00
2013-8-21,87,77,71,74,70,67,95,80,63,29.91,29.82,0,0,0,0.25
2013-8-22,82,75,68,71,69,66,95,82,66,30.03,29.91,0,0,0,0.80
2013-8-23,83,75,67,73,70,66,95,84,68,30.05,29.95,0,0,0,0.00
2013-8-24,87,75,70,75,67,-100,92,80,66,30.05,29.92,0,-21,0,0.02
2013-8-25,92,82,72,76,72,69,89,74,56,30.02,29.92,0,0,0,0.00
2013-8-26,94,83,73,76,73,70,89,74,53,29.96,29.81,0,0,0,0.00
2013-8-27,92,83,76,78,73,69,89,72,57,29.82,29.75,0,0,0,0.00
2013-8-28,93,84,74,80,77,73,95,81,61,29.90,29.81,0,0,0,0.00
2013-8-29,92,82,72,77,71,67,93,70,49,29.94,29.80,0,0,0,0.00
2013-8-30,88,79,71,76,71,67,91,78,61,29.81,29.77,0,0,0,0.00
2013-8-31,88,76,64,72,68,63,95,78,52,29.81,29.70,0,0,0,0.00
2013-9-1,77,70,61,71,62,56,91,76,58,29.93,29.66,0,0,0,0.05
2013-9-2,73,63,52,57,54,51,94,74,48,30.05,29.93,0,0,0,0.00
2013-9-3,80,65,52,62,56,50,94,74,45,30.08,29.96,0,0,0,0.01
2013-9-4,89,75,62,68,63,59,89,68,43,30.07,29.99,0,0,0,0.00
2013-9-5,88,78,68,68,66,64,89,68,47,30.12,30.03,0,0,0,0.00
2013-9-6,90,78,68,68,66,64,95,70,45,30.04,29.82,0,0,0,0.02
2013-9-7,90,80,69,76,70,65,88,74,59,29.86,29.79,0,0,0,0.00
2013-9-8,76,72,68,72,69,66,94,88,82,29.91,29.79,0,0,0,0.00
2013-9-9,98,81,68,71,67,62,96,68,31,29.79,29.64,0,0,0,0.00
2013-9-10,85,76,67,69,66,64,93,73,57,29.94,29.73,0,0,0,0.01
2013-9-11,85,74,67,67,63,58,92,69,40,30.02,29.93,0,0,0,0.00
2013-9-12,75,66,56,62,50,46,80,59,38,30.16,30.00,0,0,0,0.00
2013-9-13,71,60,48,51,47,45,89,65,40,30.23,30.07,0,0,0,0.00
2013-9-14,74,61,47,55,47,43,84,62,37,30.07,29.81,0,0,0,0.08
2013-9-15,66,62,54,57,56,52,94,81,70,30.24,29.76,0,0,0,0.11
2013-9-16,69,57,48,55,50,46,95,81,57,30.34,30.21,0,0,0,0.01
2013-9-17,62,57,53,61,55,50,97,94,86,30.23,29.90,0,0,0,0.01
2013-9-18,88,74,62,72,67,61,98,80,55,29.90,29.64,0,0,1,0.49
2013-9-19,81,73,62,70,66,53,87,77,60,29.81,29.59,0,0,0,0.03
2013-9-20,62,56,49,54,49,43,90,76,59,29.95,29.82,0,0,0,0.00
2013-9-21,72,57,43,48,44,40,88,66,36,30.00,29.86,0,0,0,0.00
2013-9-22,80,64,51,56,52,46,83,66,42,29.90,29.78,0,0,0,0.00
2013-9-23,76,63,51,54,51,49,91,69,43,29.88,29.77,0,0,0,0.00
2013-9-24,75,61,53,57,53,49,86,74,53,29.89,29.83,0,0,0,0.00
2013-9-25,76,64,51,56,53,48,91,70,44,29.92,29.77,0,0,0,0.00
2013-9-26,82,64,57,62,56,53,89,77,49,29.85,29.77,0,0,0,0.00
2013-12-11,2,1,2,-5,-37,-100,72,48,70,30.70,0.00,9,-329,11,0.00